Weather Roundup
Issued by NWS Chicago, IL

Home | Current Version | Previous Version | Graphics & Text | Print | Product List | Glossary On
Versions: 1 2 3 4 5 6 7 8 9 10 11 12 13 14 15 16 17 18 19 20 21 22 23 24 25 26 27 28 29 30 31 32 33 34 35 36 37 38 39 40 41 42 43 44 45 46 47 48 49 50
000
NZUS59 KLOT 240809
HRRLOT

CHICAGO AREA WEATHER ROUNDUP
NATIONAL WEATHER SERVICE CHICAGO/ROMEOVILLE IL
300 AM CDT SUN SEP 24 2017

NOTE: "FAIR" INDICATES FEW OR NO CLOUDS BELOW 12,000 FEET WITH NO
SIGNIFICANT WEATHER AND/OR OBSTRUCTIONS TO VISIBILITY.

* THESE STATIONS ARE NOT UNDER NWS QUALITY CONTROL. THEY ALSO MAY NOT
  REPORT WEATHER SUCH AS PRECIPITATION OR FOG.

ILZ005-006-012>014-019>023-240900-
NORTHEAST ILLINOIS

CITY           SKY/WX    TMP DP  RH WIND       PRES   REMARKS
OHARE          CLEAR     72  65  78 CALM      30.07S
MIDWAY         CLEAR     77  65  66 SE5       30.07S
AURORA         CLEAR     71  66  84 CALM      30.08R
LANSING*       CLEAR     68  65  91 CALM      30.09R
JOLIET*        CLEAR     69  66  90 CALM      30.07S
WAUKEGAN       CLEAR     68  67  96 CALM      30.07S FOG
DUPAGE AIRPORT CLEAR     67  65  93 CALM      30.07S FOG
WHEELING       CLEAR     71  69  93 CALM      30.08S
MORRIS*        CLEAR     71  65  83 E3        30.06S
LEWIS AIRPORT* CLEAR     72  64  76 SE6       30.08R
NORTHERLY ISL    N/A     72  68  87 E1          N/A
$$

WIZ051-052-058>065-066-070>072-240900-
SOUTHEAST WISCONSIN

CITY           SKY/WX    TMP DP  RH WIND       PRES   REMARKS
MILWAUKEE      CLEAR     70  66  87 SE3       30.07F
KENOSHA*       CLEAR     67  65  93 CALM      30.08S
RACINE*        CLEAR     72  69  90 CALM      30.10S
WAUKESHA       CLEAR     70  63  78 CALM      30.10S
WEST BEND        N/A     63  63 100 CALM      30.09S
$$

INZ001>003-010>013-019-020-240900-
NORTHWEST INDIANA

CITY           SKY/WX    TMP DP  RH WIND       PRES   REMARKS
GARY*          CLEAR     65  63  90 SE3       30.09R
MICHIGAN CITY* NOT AVBL
RENSSELAER*    NOT AVBL
VALPARAISO     CLEAR     70  65  84 CALM      30.09S
$$

LMZ740>746-240900-
SOUTHERN LAKE MICHIGAN

STATION/POSITION TIME  SKY/WX   TEMP WIND        PRES    VSBY
                                AIR  DIR/SP/G
                 (UTC)          (F)  (DEG/KT/KT) (MB)    (MI)
HARRISON CRIB    0740            76  180/  7/  8   N/A
BURNHAM HARBOR   0800            71                N/A
CALUMET HARBOR   0748            76  170/  1/  2 1017.8R
BURNS HARBOR     0740            76  150/  5/ 11 1018.6S
MICHIGAN CITY    0740            76  130/  8/  9   N/A
$$

ABBREVIATIONS USED IN REMARKS
   TC - TEMPERATURE IN CELSIUS
  WCI - WIND CHILL INDEX
   HX - HEAT INDEX
  VSB - VISIBILITY
$$




USA.gov is the U.S. government's official web portal to all federal, state and local government web resources and services.